To NAV CANADA Home Page Login to a new session Search on AWWS site Feedback and Comments Disclaimer Vers la page française équivalente Tips FAQ What's new on the site To the Forecasts and Observations / NOTAM section To "File a Flight Plan" website Publications and other links Update of the User's profile FIC Telephone Numbers My Weather Data Folder Route Weather Data Regional Weather Data Local Weather Data To the Forecasts and Observations / NOTAM section
Request Generated 05/23/2015 at 11:46:59 UTC . Weather information available at that time is displayed.

METAR/TAF

FLIN FLON/MB    

METAR CYFO 231100Z 02008KT 15SM FEW015 FEW100 FEW250 11/06 A3006 RMK
CU1AC1CI1 CU TRACE SLP182=
LWIS CYFO 231000Z AUTO 02006KT 12/06 A3003=
LWIS CYFO 230900Z AUTO 01007KT 13/05 A3000=

CYFO - No TAF is issued for this station

Your time UTC time
Weather data provided by Environment Canada and NAV CANADA